This is the latest recevied weather packets stored in our database for station/object W6DSP. If no packets are shown the sender has not sent any weather packets the latest 10 day(s).
| Time | Temp. | Humidity | Pressure | Rain* | Wind** | Luminosity | Snow |
|---|---|---|---|---|---|---|---|
| 1778089562 | 12.78° C | 51% | 1014.6 hPa | 0 mm | - | - | - |
| 1778088834 | 13.33° C | 48% | 1014.5 hPa | 0 mm | - | - | - |
| 1778088121 | 13.89° C | 43% | 1014.3 hPa | 0 mm | - | - | - |
| 1778087399 | 12.78° C | 44% | 1014.3 hPa | 0 mm | - | - | - |
| 1778086650 | 13.33° C | 45% | 1014.3 hPa | 0 mm | - | - | - |
| 1778085914 | 13.33° C | 44% | 1014.3 hPa | 0 mm | - | - | - |
| 1778085202 | 12.78° C | 46% | 1014.4 hPa | 0 mm | - | - | - |
| 1778084462 | 12.78° C | 47% | 1014.4 hPa | 0 mm | - | - | - |
| 1778083766 | 12.22° C | 44% | 1014.6 hPa | 0 mm | - | - | - |
| 1778083057 | 12.78° C | 45% | 1014.5 hPa | 0 mm | - | - | - |
| 1778082351 | 12.78° C | 50% | 1014.7 hPa | 0 mm | - | - | - |
| 1778081657 | 12.78° C | 45% | 1014.6 hPa | 0 mm | - | - | - |
| 1778080961 | 12.78° C | 48% | 1014.6 hPa | 0 mm | - | - | - |
| 1778080218 | 12.22° C | 45% | 1014.6 hPa | 0 mm | - | - | - |
| 1778079483 | 12.78° C | 53% | 1014.5 hPa | 0 mm | - | - | - |
| 1778078747 | 12.22° C | 51% | 1014.3 hPa | 0 mm | - | - | - |
| 1778078042 | 11.67° C | 50% | 1014.3 hPa | 0 mm | - | - | - |
| 1778077323 | 11.11° C | 57% | 1014.2 hPa | 0 mm | - | - | - |
| 1778076619 | 11.11° C | 51% | 1014 hPa | 0 mm | - | - | - |
| 1778075924 | 11.11° C | 58% | 1013.8 hPa | 0 mm | - | - | - |
| 1778075209 | 10.56° C | 56% | 1013.7 hPa | 0 mm | - | - | - |
| 1778074457 | 10.56° C | 58% | 1013.7 hPa | 0 mm | - | - | - |
| 1778073720 | 9.44° C | 64% | 1013.5 hPa | 0 mm | - | - | - |
| 1778073011 | 9.44° C | 63% | 1013.5 hPa | 0 mm | - | - | - |
| 1778072296 | 8.89° C | 65% | 1013.4 hPa | 0 mm | - | - | - |
* Rain latest hour (hover to see other rain measurements)
** Current wind speed in m/s (hover to see current wind gust speed)